Weather History for KOLF - February, 2013

Change the Weather History Date:

Monday, February 11, 2013

  Actual Average Record
Temperature  
Mean Temperature 18 °F -  
Max Temperature 30 °F 29 °F 53 °F (2005)
Min Temperature 5 °F 4 °F -10 °F (2012)
Degree Days  
Heating Degree Days 47    
Cooling Degree Days 0    
Moisture  
Dew Point 13 °F    
Average Humidity 78    
Maximum Humidity 88    
Minimum Humidity 64    
Precipitation  
Precipitation T in 0.01 in 0.01 in (2008)
Month to date precipitation 0.08 0.06  
Year to date precipitation 0.19 0.37  
Sea Level Pressure  
Sea Level Pressure 30.06 in    
Wind  
Wind Speed 6 mph (WSW)    
Max Wind Speed 10 mph    
Max Gust Speed -    
Visibility 10 miles    
Events Snow    
T = Trace of Precipitation, MM = Missing Value Source: NWS Daily Summary

Daily Weather History Graph

Daily Weather History Graph

Search for Another Location

Airport or City:

Trip Planner

Search our weather history database for the weather conditions in past years. The results will help you decide how hot, cold, wet, or windy it might be!

Date:

Astronomy

Feb. 11, 2013 Rise Set
Actual Time 7:14 AM MST 5:18 PM MST
Civil Twilight 6:42 AM MST 5:51 PM MST
Nautical Twilight 6:06 AM MST 6:27 PM MST
Astronomical Twilight 5:30 AM MST 7:03 PM MST
Moon 7:29 AM MST (2/11) 7:32 PM MST (2/11)
Length of Visible Light 11h 08m
Length of Day
10h 03m
Waxing Crescent, 3% of the Moon is Illuminated
Feb 11
Waxing Crescent
Feb 17
First Quarter
Feb 25
Full
Mar 4
Last Quarter
Mar 11
New

Hourly Weather History & Observations

Time (MST) Temp. Windchill Dew Point Humidity Pressure Visibility Wind Dir Wind Speed Gust Speed Precip Events Conditions
12:53 AM 19.0 °F 10.0 °F 12.9 °F 77% 30.21 in 7.0 mi West 6.9 mph - 0.00 in Snow Light Snow
1:53 AM 19.0 °F 9.0 °F 12.9 °F 77% 30.21 in 10.0 mi West 8.1 mph - 0.00 in   Overcast
2:53 AM 19.0 °F 8.2 °F 12.9 °F 77% 30.19 in 10.0 mi West 9.2 mph - N/A   Overcast
3:53 AM 19.0 °F 13.9 °F 14.0 °F 81% 30.17 in 10.0 mi West 3.5 mph - N/A   Overcast
4:53 AM 17.1 °F 6.6 °F 12.0 °F 81% 30.17 in 10.0 mi WSW 8.1 mph - N/A   Mostly Cloudy
5:06 AM 15.8 °F 7.2 °F 12.2 °F 86% 30.06 in 10.0 mi WSW 5.8 mph - N/A   Scattered Clouds
5:53 AM 12.9 °F 5.2 °F 9.0 °F 84% 30.16 in 10.0 mi WSW 4.6 mph - N/A   Partly Cloudy
6:53 AM 9.0 °F 2.4 °F 6.1 °F 88% 30.16 in 9.0 mi SW 3.5 mph - N/A   Clear
7:53 AM 5.0 °F -2.1 °F 1.9 °F 87% 30.15 in 10.0 mi South 3.5 mph - N/A   Clear
8:53 AM 10.0 °F 3.6 °F 7.0 °F 87% 30.13 in 10.0 mi WSW 3.5 mph - N/A   Clear
9:53 AM 12.9 °F - 10.0 °F 88% 30.11 in 10.0 mi Calm Calm - N/A   Clear
10:53 AM 17.1 °F 11.7 °F 10.9 °F 77% 30.09 in 10.0 mi SW 3.5 mph - N/A   Clear
11:53 AM 21.9 °F 15.7 °F 14.0 °F 72% 30.05 in 10.0 mi West 4.6 mph - N/A   Clear
12:53 PM 25.0 °F 18.1 °F 16.0 °F 69% 30.02 in 10.0 mi West 5.8 mph - N/A   Clear
1:53 PM 27.0 °F 18.0 °F 18.0 °F 69% 29.98 in 10.0 mi SW 9.2 mph - N/A   Clear
2:53 PM 28.0 °F 20.0 °F 18.0 °F 66% 29.96 in 10.0 mi West 8.1 mph - N/A   Clear
3:53 PM 30.0 °F 23.2 °F 19.0 °F 64% 29.95 in 10.0 mi WSW 6.9 mph - N/A   Clear
4:53 PM 27.0 °F 18.7 °F 18.0 °F 69% 29.95 in 10.0 mi WSW 8.1 mph - N/A   Clear
5:53 PM 24.1 °F 14.4 °F 16.0 °F 71% 29.96 in 10.0 mi WSW 9.2 mph - N/A   Clear
6:53 PM 21.0 °F 11.4 °F 15.1 °F 78% 29.99 in 10.0 mi WSW 8.1 mph - N/A   Clear
7:53 PM 19.9 °F 11.1 °F 14.0 °F 78% 29.99 in 10.0 mi SW 6.9 mph - N/A   Clear
8:53 PM 17.1 °F 7.6 °F 12.0 °F 81% 30.00 in 10.0 mi WSW 6.9 mph - N/A   Clear
9:53 PM 19.0 °F 8.2 °F 14.0 °F 81% 29.99 in 10.0 mi WSW 9.2 mph - N/A   Clear
10:53 PM 18.0 °F 6.1 °F 12.9 °F 81% 29.98 in 10.0 mi WSW 10.4 mph - N/A   Clear
11:53 PM 19.0 °F 8.2 °F 14.0 °F 81% 29.98 in 10.0 mi West 9.2 mph - N/A   Clear